Regional Weather Roundup
Issued by NWS

Home | Current Version | Previous Version | Graphics & Text | Print | Product List | Glossary On
Versions: 1 2 3 4 5 6 7 8 9 10 11 12 13 14 15 16 17 18 19 20 21 22 23 24 25 26 27 28 29 30 31 32 33 34 35 36 37 38 39 40 41 42 43 44 45 46 47 48 49 50
000
ASUS43 KMPX 301910
RWRMN
WEATHER ROUNDUP FOR MINNESOTA
NATIONAL WEATHER SERVICE TWIN CITIES/CHANHASSEN MN
100 PM CST FRI JAN 30 2015


NOTE: "FAIR" INDICATES FEW OR NO CLOUDS BELOW 12,000 FEET WITH NO
SIGNIFICANT WEATHER AND/OR OBSTRUCTIONS TO VISIBILITY. N/A MEANS
CURRENT SKY AND/OR WEATHER CONDITIONS ARE NOT AVAILABLE.

MNZ060>063-068>070-302000-
   Twin Cities Metro

CITY           SKY/WX    TMP DP  RH WIND       PRES   REMARKS
TWIN CITIES    PTSUNNY   22  10  60 SW8       30.44F WCI  12
ST PAUL        PTSUNNY   21   9  59 SE8       30.46F WCI  11
CRYSTAL        PTSUNNY   22  10  60 S9        30.42F WCI  12
BLAINE         MOSUNNY   25  10  54 S8        30.43F WCI  16
LAKEVILLE      MOSUNNY   21  12  68 S9        30.42F WCI  11
EDEN PRAIRIE   PTSUNNY   23  11  60 S9        30.42F WCI  13
SOUTH ST PAUL  MOSUNNY   23  11  61 S7        30.45F WCI  14
LAKE ELMO      FAIR      21  12  68 S10       30.44F WCI  10
$$
MNZ001>005-007-008-013>017-022>024-027-028-302000-
   Northwest Minnesota

CITY           SKY/WX    TMP DP  RH WIND       PRES   REMARKS
BEMIDJI        PTSUNNY   15   9  75 SE9       30.24F WCI   3
HALLOCK        CLOUDY    18  14  86 S17       30.19F WCI   2
ROSEAU         PTSUNNY   16   9  73 S10       30.19F WCI   3
WARROAD        PTSUNNY   12   9  85 S6        30.21F WCI   3
THIEF RVR FALL CLOUDY    19  16  86 S12       30.19F WCI   7
CROOKSTON      CLOUDY    21  18  86 S16G22    30.21F WCI   7
FOSSTON        PTSUNNY   19  14  79 S16       30.20F WCI   5
DETROIT LAKES  MOSUNNY   19  18  93 S14       30.23F WCI   6
MOORHEAD       MOSUNNY   25  19  80 S23       30.22F WCI  10
PARK RAPIDS    CLOUDY    19  11  70 S13       30.24F WCI   6
MAHNOMEN       CLOUDY    20  14  77 S15G21    30.20F WCI   6
$$
MNZ006-009>011-018-025>026-302000-
   North Central Minnesota

CITY           SKY/WX    TMP DP  RH WIND       PRES   REMARKS
BAUDETTE       LGT SNOW  10   5  80 S7        30.22F WCI  -1
FLAG ISLAND    LGT SNOW   7   3  85 S17       30.22F WCI -12
INTL FALLS     LGT SNOW   7   2  80 SE7       30.27F WCI  -5
WASKISH        CLOUDY    14   5  67 SE7       30.25F WCI   4
BIG FORK       PTSUNNY   12   3  67 SE5       30.28F WCI   4
LONGVILLE      CLOUDY    16   7  67 S10       30.29F WCI   3
GRAND RAPIDS   CLOUDY    12   3  67 S12       30.29F WCI  -2
CRANE LAKE     LGT SNOW   7   0  72 S5        30.35F WCI  -2
ORR            MIX PCPN   9   0  66 CALM      30.28F
COOK           LGT SNOW   9   3  78 S5        30.31F WCI   0
WALKER         CLOUDY    15   8  72 S8        30.26F WCI   4
$$
MNZ012-019>021-037-302000-
   Northeast Minnesota

CITY           SKY/WX    TMP DP  RH WIND       PRES   REMARKS
DULUTH         CLOUDY    11   1  64 S9        30.33F WCI  -2
ELY            LGT SNOW   7   0  72 SE6       30.32F WCI  -3
HIBBING        CLOUDY    10   1  67 S3        30.32F
EVELETH        FLURRIES  10   3  72 SE6       30.33F WCI   1
DULUTH HARBOR  CLOUDY    16   3  57 CALM      30.42F
TWO HARBORS    FLURRIES  14   1  57 CALM      30.35F
SILVER BAY     CLOUDY    16  -2  45 S3        30.35F
GRAND MARAIS     N/A     14   3  61 SW5       30.41F WCI   6
G MARAIS ARPRT CLOUDY    10  -8  44 SW6       30.29F WCI   1
$$
MNZ029>031-032-039>041-046>048-054>057-064-302000-
   West Central Minnesota

CITY           SKY/WX    TMP DP  RH WIND       PRES   REMARKS
FERGUS FALLS   PTSUNNY   21  16  79 SE18      30.29F WCI   6
WHEATON        SUNNY     27  21  80 SE22      30.26F WCI  12
MORRIS         PTSUNNY   23  18  80 SE21      30.28F WCI   8
ALEXANDRIA     CLOUDY    18  14  84 S15       30.30F WCI   4
ELBOW LAKE     CLOUDY    22  18  85 SE18G24   30.26F WCI   7
WADENA         PTSUNNY   19  12  73 S14       30.27F WCI   6
GLENWOOD       CLOUDY    18  16  93 S15       30.31F WCI   3
APPLETON       SUNNY     28  21  74 SE10      30.30F WCI  19
BENSON         CLOUDY    25  18  74 S13       30.32F WCI  13
ORTONVILLE     SUNNY     30  21  69 SE13      30.27F WCI  20
MADISON        SUNNY     36  27  69 S17       30.28F
WILLMAR        CLOUDY    21  16  79 S10       30.37F WCI  10
$$
MNZ033>034-036-042>043-049>051-058-059-302000-
   Central Minnesota

CITY           SKY/WX    TMP DP  RH WIND       PRES   REMARKS
ST CLOUD       SUNNY     21  10  62 S15       30.37F WCI   8
SAUK CENTRE    FAIR      21  13  70 S13       30.33F WCI   9
PAYNESVILLE    SUNNY     19  12  73 SE10G17   30.36F WCI   7
AITKIN         CLOUDY    18   9  68 S9        30.31F WCI   6
PINE RIVER     PTSUNNY   18   9  68 S9        30.32F WCI   6
BRAINERD       PTSUNNY   19   9  65 S10       30.32F WCI   7
STAPLES        PTSUNNY   19  10  68 S15       30.29F WCI   5
LONG PRAIRIE   FAIR      21  14  73 S12       30.32F WCI   9
LITTLE FALLS   SUNNY     23  10  58 S15       30.34F WCI  10
LITCHFIELD     MOSUNNY   23  16  74 S3        30.39F
BUFFALO        PTSUNNY   22  12  65 S8        30.41F WCI  12
MAPLE LAKE     CLOUDY    22  14  70 S3        30.40F
$$
MNZ037-044-045-052-053-302000-
   East Central Minnesota

CITY           SKY/WX    TMP DP  RH WIND       PRES   REMARKS
PRINCETON      MOSUNNY   25  10  54 S9        30.38F WCI  15
MORA           PTSUNNY   16   7  67 S8        30.41F WCI   5
CAMBRIDGE      MOSUNNY   21   9  58 S8        30.38F WCI  12
RUSH CITY      PTSUNNY   16   7  67 S7        30.41F WCI   6
MOOSE LAKE     CLOUDY    14   5  67 S6        30.35F WCI   5
HINCKLEY       CLOUDY    18   9  68 S8        30.39F WCI   7
CLOQUET        CLOUDY    12   3  67 SW7       30.34F WCI   2
MCGREGOR       CLOUDY    18   9  68 S8        30.34F WCI   7
$$
MNZ071>073-080-081-089-090-097-098-302000-
   Southwest Minnesota

CITY           SKY/WX    TMP DP  RH WIND       PRES   REMARKS
MONTEVIDEO     MOSUNNY   28  21  74 SW13      30.33F WCI  18
GRANITE FALLS  MOSUNNY   28  22  76 SE13      30.35F WCI  18
CANBY          SUNNY     34  25  69 S13       30.30F WCI  25
MARSHALL       SUNNY     30  19  64 S13       30.34F WCI  20
REDWOOD FALLS  CLOUDY    24  18  77 S14       30.38F WCI  12
OLIVIA         CLOUDY    21  18  86 S12G18    30.38F WCI   9
PIPESTONE      SUNNY     30  25  80 SW14      30.29F WCI  20
WINDOM         SUNNY     27  19  74 S9G17     30.36F WCI  17
WORTHINGTON    SUNNY     28  19  69 S12       30.35F WCI  18
JACKSON        SUNNY     28  19  69 S10       30.38F WCI  19
TRACY          SUNNY     30  23  74 S12G17    30.34F WCI  21
SLAYTON        MOSUNNY   28  22  76 S8G17     30.33F WCI  20
$$
MNZ065>067-074>077-082>085-091>093-302000-
   South Central Minnesota

CITY           SKY/WX    TMP DP  RH WIND       PRES   REMARKS
MANKATO        SUNNY     25  12  58 S13       30.42F WCI  13
NEW ULM        MOSUNNY   25  16  68 S6        30.41F WCI  18
ST JAMES       SUNNY     27  18  69 S8        30.41F WCI  18
FAIRMONT       SUNNY     27  14  59 S14       30.40F WCI  15
GLENCOE        SUNNY     25  17  72 SW8       30.41F WCI  16
FARIBAULT      SUNNY     25  16  68 S9        30.43F WCI  15
OWATONNA       SUNNY     25  16  68 S10       30.43F WCI  15
WASECA         SUNNY     25  18  74 S10       30.44F WCI  15
ALBERT LEA     SUNNY     25  14  63 S7        30.42F WCI  17
$$
MNZ078>079-086>088-094>096-302000-
   Southeast Minnesota

CITY           SKY/WX    TMP DP  RH WIND       PRES   REMARKS
ROCHESTER      SUNNY     18  11  74 S9        30.44F WCI   7
RED WING       MOSUNNY   19   9  63 S7        30.46F WCI  10
STANTON        MOSUNNY   25  14  64 SW9       30.43F WCI  15
DODGE CENTER   SUNNY     21  16  79 SW10      30.43F WCI  10
WINONA         MOSUNNY   23   9  54 W3        30.49F
AUSTIN         SUNNY     23  12  63 S9        30.43F WCI  13
PRESTON        SUNNY     20   9  64 S8        30.44F WCI  10
$$
ABBREVIATIONS USED IN REMARKS
   TC - TEMPERATURES IN CELSIUS
  WCI - WIND CHILL INDEX
   HX - HEAT INDEX
  VSB - VISIBILITY
$$



USA.gov is the U.S. government's official web portal to all federal, state and local government web resources and services.